FW6725 Weather Reports


Display with metric or nautical units.
time (UTC)temp
F
wind
direction
speed
MPH
gust
MPH
rain 1hr
in
rain 24hr
in
rain mn
in
humidity
%
barometer
mb
20260901224519 57 269 3.0 5.0 0.00 0.00 0.00 98 1007.3
20260901223518 57 271 3.0 5.0 0.00 0.00 0.00 98 1007.2
20260901222517 57 265 4.0 6.0 0.00 0.00 0.00 98 1007.1
20260901221516 57 265 4.0 6.0 0.00 0.00 0.00 98 1007.2
20260901220545 57 260 4.0 6.0 0.00 0.00 0.00 98 1007.2
20260901215624 57 268 4.0 6.0 0.00 0.00 0.00 98 1007.1
20260901214544 57 280 3.0 7.0 0.00 0.00 0.00 98 1007.1
20260901213543 58 263 4.0 7.0 0.00 0.00 0.00 97 1007.1
20260901212541 58 246 5.0 7.0 0.00 0.00 0.00 97 1007.2
20260901211540 58 239 5.0 8.0 0.00 0.00 0.00 96 1007.1
20260901210559 58 235 6.0 9.0 0.00 0.00 0.00 96 1007.1
20260901205538 58 235 6.0 9.0 0.00 0.00 0.00 96 1007.2
20260901204537 58 235 7.0 9.0 0.00 0.00 0.00 96 1007.1
20260901203536 59 227 6.0 9.0 0.00 0.00 0.00 96 1007.1
20260901202535 59 227 6.0 8.0 0.00 0.00 0.00 96 1007.2
20260901201534 59 223 5.0 8.0 0.00 0.00 0.00 95 1007.2
20260901200533 59 225 5.0 9.0 0.00 0.00 0.00 94 1007.1
20260901195553 59 219 6.0 9.0 0.00 0.00 0.00 94 1007.1
20260901194551 59 202 4.0 7.0 0.00 0.00 0.00 96 1007.1
20260901193530 60 192 4.0 6.0 0.00 0.00 0.00 94 1007.1
20260901192549 60 202 4.0 6.0 0.00 0.00 0.00 94 1007.1
20260901191529 60 190 4.0 7.0 0.00 0.01 0.00 94 1007.1
20260901190527 60 192 4.0 7.0 0.00 0.02 0.00 93 1007.1
20260901185526 60 180 4.0 5.0 0.00 0.03 0.00 93 1007.1
20260901184525 61 190 4.0 6.0 0.00 0.03 0.00 91 1007.1
20260901183524 61 206 4.0 6.0 0.00 0.03 0.00 89 1007.1
20260901182523 61 208 4.0 6.0 0.00 0.03 0.00 90 1007.1
20260901181523 62 197 4.0 7.0 0.00 0.03 0.00 88 1007.2
20260901180521 62 198 5.0 7.0 0.00 0.03 0.00 87 1007.2
20260901175520 62 195 4.0 7.0 0.00 0.03 0.00 86 1007.2
20260901174521 62 198 4.0 8.0 0.00 0.03 0.00 84 1007.3
20260901173520 62 198 5.0 8.0 0.00 0.03 0.00 84 1007.3
20260901172519 63 200 4.0 8.0 0.00 0.03 0.00 83 1007.3
20260901171518 63 209 4.0 6.0 0.00 0.03 0.00 82 1007.2
20260901170607 63 198 3.0 6.0 0.00 0.03 0.00 79 1007.1
20260901165546 64 201 4.0 6.0 0.00 0.03 0.00 77 1007.1
20260901164545 64 211 4.0 7.0 0.00 0.03 0.00 78 1007.1
20260901163544 64 228 3.0 5.0 0.00 0.03 0.00 77 1007.1
20260901162543 64 236 4.0 6.0 0.00 0.03 0.00 76 1007.1
20260901161542 65 223 5.0 8.0 0.00 0.03 0.00 75 1007.2
20260901160601 66 229 5.0 8.0 0.00 0.03 0.00 73 1007.2
20260901155540 66 225 6.0 10.0 0.00 0.03 0.00 72 1007.2
20260901154539 66 223 6.0 9.0 0.00 0.03 0.00 72 1007.2
20260901153538 65 220 5.0 9.0 0.00 0.03 0.00 76 1007.3
20260901152537 66 213 5.0 8.0 0.00 0.03 0.00 76 1007.3
20260901151537 66 220 5.0 7.0 0.00 0.03 0.00 75 1007.3
20260901150535 65 237 5.0 10.0 0.00 0.03 0.00 78 1007.4
20260901145534 65 242 5.0 10.0 0.00 0.03 0.00 77 1007.4
20260901144533 65 245 7.0 12.0 0.00 0.03 0.00 76 1007.4
20260901143532 66 232 7.0 12.0 0.00 0.03 0.00 74 1007.5
20260901142531 67 233 7.0 12.0 0.00 0.03 0.00 70 1007.4
20260901141550 66 217 7.0 12.0 0.00 0.03 0.00 71 1007.4
20260901140549 67 240 9.0 15.0 0.00 0.03 0.00 71 1007.5
20260901135528 67 215 9.0 15.0 0.00 0.03 0.00 72 1007.6
20260901134547 65 200 7.0 12.0 0.00 0.03 0.00 75 1007.6
20260901133527 65 213 7.0 12.0 0.00 0.03 0.00 77 1007.6
20260901132526 65 215 6.0 9.0 0.00 0.03 0.00 78 1007.6
20260901131526 65 207 8.0 12.0 0.00 0.03 0.00 76 1007.6
20260901130524 66 196 7.0 12.0 0.00 0.03 0.00 74 1007.7
20260901125523 66 189 7.0 12.0 0.00 0.03 0.00 76 1007.7
20260901124522 66 207 7.0 13.0 0.00 0.03 0.00 77 1007.7
20260901123521 65 201 7.0 13.0 0.00 0.03 0.00 76 1007.7
20260901122520 65 213 9.0 15.0 0.00 0.06 0.00 76 1007.7
20260901121519 66 218 9.0 15.0 0.00 0.06 0.00 75 1007.8
20260901120518 65 216 8.0 14.0 0.00 0.06 0.00 75 1007.8
20260901115517 65 207 8.0 13.0 0.00 0.07 0.00 76 1007.8
20260901114516 65 200 9.0 14.0 0.00 0.07 0.00 75 1007.8
20260901113545 66 214 9.0 14.0 0.00 0.07 0.00 74 1007.9
20260901112544 65 210 7.0 12.0 0.00 0.07 0.00 76 1007.9
20260901111543 65 218 10.0 15.0 0.00 0.07 0.00 76 1007.9
20260901110542 64 206 9.0 17.0 0.00 0.07 0.00 76 1007.9
20260901105541 65 205 8.0 16.0 0.00 0.07 0.00 74 1007.9
20260901104600 65 206 8.0 14.0 0.00 0.07 0.00 76 1007.8
20260901103539 65 201 9.0 14.0 0.00 0.07 0.00 76 1007.8
20260901102558 65 212 10.0 15.0 0.00 0.07 0.00 76 1007.8
20260901101537 65 212 9.0 15.0 0.00 0.07 0.00 75 1007.8
20260901100538 64 214 11.0 16.0 0.00 0.07 0.00 77 1007.7
20260901095555 64 212 10.0 15.0 0.00 0.07 0.00 78 1007.7
20260901094534 64 209 8.0 15.0 0.00 0.07 0.00 78 1007.6
20260901093553 64 203 7.0 15.0 0.00 0.07 0.00 77 1007.6
20260901092534 65 203 8.0 14.0 0.00 0.07 0.00 77 1007.5
20260901091552 65 201 8.0 14.0 0.00 0.07 0.00 77 1007.5
20260901090531 65 194 6.0 10.0 0.00 0.07 0.00 80 1007.5
20260901085530 64 216 8.0 12.0 0.00 0.07 0.00 82 1007.5
20260901084529 64 209 7.0 12.0 0.00 0.07 0.00 82 1007.5
20260901083528 64 209 5.0 11.0 0.00 0.07 0.00 80 1007.5
20260901082527 63 208 8.0 13.0 0.00 0.09 0.00 86 1007.5
20260901081526 63 196 6.0 10.0 0.00 0.11 0.00 85 1007.5
20260901080527 63 212 6.0 10.0 0.00 0.12 0.00 86 1007.5
20260901075525 62 193 5.0 10.0 0.00 0.14 0.00 89 1007.4
20260901074523 62 193 5.0 9.0 0.00 0.14 0.00 89 1007.4
20260901073524 62 200 4.0 8.0 0.00 0.14 0.00 91 1007.4
20260901072523 61 207 6.0 9.0 0.00 0.14 0.00 92 1007.4
20260901071522 61 204 5.0 9.0 0.00 0.14 0.00 93 1007.4
20260901070521 61 194 4.0 9.0 0.00 0.14 0.00 93 1007.4
20260901065521 61 196 6.0 10.0 0.00 0.14 0.00 93 1007.4
20260901064519 61 207 6.0 10.0 0.00 0.14 0.00 93 1007.3
20260901063518 61 199 4.0 7.0 0.00 0.15 0.00 94 1007.3
20260901062517 61 205 5.0 9.0 0.00 0.15 0.00 94 1007.3
20260901061607 60 190 4.0 8.0 0.00 0.15 0.00 95 1007.2
20260901060545 60 198 4.0 8.0 0.00 0.16 0.00 95 1007.3
20260901055544 60 196 4.0 7.0 0.00 0.17 0.00 96 1007.3
20260901054544 59 196 5.0 9.0 0.00 0.17 0.00 97 1007.3
20260901053542 59 178 4.0 9.0 0.00 0.18 0.00 98 1007.3
20260901052541 59 173 4.0 7.0 0.00 0.18 0.00 98 1007.3
20260901051540 59 185 3.0 7.0 0.00 0.18 0.00 98 1007.3
20260901050559 59 194 4.0 7.0 0.00 0.18 0.00 98 1007.3
20260901045539 59 171 3.0 5.0 0.00 0.18 0.00 98 1007.3
20260901044537 58 159 3.0 5.0 0.00 0.22 0.00 98 1007.2
20260901043536 58 163 3.0 5.0 0.00 0.26 0.00 98 1007.2
20260901042535 58 177 3.0 5.0 0.00 0.30 0.00 98 1007.2
20260901041534 58 199 4.0 6.0 0.00 0.33 0.00 98 1007.3
20260901040533 58 197 4.0 6.0 0.00 0.34 0.00 98 1007.2
20260901035533 58 196 3.0 6.0 0.00 0.34 0.00 98 1007.3
20260901034531 58 194 4.0 6.0 0.00 0.34 0.00 98 1007.2
20260901033530 58 201 4.0 6.0 0.00 0.34 0.00 98 1007.3
20260901032529 58 201 4.0 6.0 0.00 0.36 0.00 98 1007.2
20260901031530 58 200 4.0 6.0 0.00 0.37 0.00 98 1007.2
20260901030530 58 195 4.0 7.0 0.00 0.37 0.00 98 1007.3
20260901025529 58 202 6.0 9.0 0.00 0.37 0.00 98 1007.2
20260901024527 58 207 7.0 10.0 0.00 0.37 0.00 98 1007.2
20260901023526 57 212 7.0 10.0 0.00 0.37 0.00 98 1007.2
20260901022524 57 206 7.0 10.0 0.00 0.37 0.00 98 1007.2
20260901021544 57 204 7.0 11.0 0.00 0.37 0.00 98 1007.2
20260901020523 57 203 6.0 11.0 0.00 0.37 0.00 98 1007.3
20260901015522 57 196 7.0 12.0 0.00 0.37 0.00 98 1007.2
20260901014521 57 192 6.0 12.0 0.00 0.37 0.00 98 1007.1
20260901013520 57 185 6.0 9.0 0.00 0.37 0.00 98 1007.1
20260901012519 57 190 5.0 9.0 0.00 0.37 0.00 98 1007.1
20260901011538 57 186 5.0 9.0 0.00 0.37 0.00 98 1007.1
20260901010517 57 187 5.0 7.0 0.00 0.37 0.00 98 1007.1
20260901005606 56 180 4.0 8.0 0.00 0.37 0.00 98 1007.1
20260901004545 56 182 4.0 8.0 0.00 0.37 0.00 98 1007.0
20260901003544 56 187 5.0 8.0 0.00 0.37 0.00 98 1007.1
20260901002543 57 186 5.0 8.0 0.00 0.37 0.00 98 1007.2
20260901001622 57 187 5.0 9.0 0.00 0.37 0.00 97 1007.2
20260901000601 57 192 5.0 9.0 0.00 0.37 0.00 97 1007.3
20260831235540 57 190 5.0 8.0 0.00 0.37 0.37 97 1007.3
20260831234619 57 190 5.0 9.0 0.00 0.37 0.37 96 1007.3
20260831233538 57 188 5.0 10.0 0.00 0.37 0.37 96 1007.5
20260831232537 58 186 5.0 10.0 0.00 0.37 0.37 96 1007.4
20260831231536 58 190 5.0 8.0 0.00 0.37 0.37 96 1007.4
20260831230535 58 186 5.0 9.0 0.00 0.37 0.37 96 1007.5
20260831225534 58 184 5.0 9.0 0.00 0.37 0.37 96 1007.6